Вернуться в каталог

GRUS-3D

АктивенНаукаSSO
NORAD 69919·PAYLOAD·🇫🇮 Finland

Запущен Jul 7, 2026 с Vandenberg Space Force Base

Loading…

Ближайшие Пролёты (ближайшие 24 часа)

TLE

СвежийSource: Space-Track

Эпоха: Sep 13, 2026, 16:28 UTC

1 69919U 26156BC  26256.68613588  .00000769  00000-0  81442-4 0  9995
2 69919  97.7441 155.9974 0005760 292.3925  67.6683 14.91954625 10191

Отслеживайте GRUS-3D в реальном времени с AllMySat

Download on the App Store